| time (UTC) | temp C | wind direction | speed KPH | gust KPH | rain 1hr cm | rain 24hr cm | rain mn cm | humidity % | barometer mb |
| 20260508131528 | 26 | 226 | 0.0 | 0.0 | 0.00 | 0.00 | 0.00 | 37 | 993.8 |
| 20260508130030 | 26 | 260 | 0.0 | 0.0 | 0.00 | 0.00 | 0.00 | 37 | 993.8 |
| 20260508124533 | 26 | 253 | 0.0 | 0.0 | 0.00 | 0.00 | 0.00 | 37 | 994.0 |
| 20260508123042 | 26 | 232 | 0.0 | 0.0 | 0.00 | 0.00 | 0.00 | 38 | 994.1 |
| 20260508121530 | 26 | 289 | 0.0 | 0.0 | 0.00 | 0.00 | 0.00 | 38 | 994.2 |
| 20260508120023 | 26 | 288 | 0.0 | 0.0 | 0.00 | 0.00 | 0.00 | 37 | 994.4 |
| 20260508114622 | 26 | 302 | 0.0 | 0.0 | 0.00 | 0.00 | 0.00 | 36 | 994.3 |
| 20260508113021 | 26 | 265 | 0.0 | 0.0 | 0.00 | 0.00 | 0.00 | 37 | 994.4 |
| 20260508111518 | 26 | 260 | 0.0 | 0.0 | 0.00 | 0.00 | 0.00 | 37 | 994.4 |
| 20260508110017 | 26 | 241 | 0.0 | 0.0 | 0.00 | 0.00 | 0.00 | 37 | 994.7 |
| 20260508104515 | 26 | 252 | 0.0 | 0.0 | 0.00 | 0.00 | 0.00 | 38 | 994.7 |
| 20260508103016 | 26 | 270 | 0.0 | 0.0 | 0.00 | 0.00 | 0.00 | 37 | 994.8 |
| 20260508101512 | 27 | 260 | 0.0 | 0.0 | 0.00 | 0.00 | 0.00 | 38 | 994.9 |
| 20260508100010 | 26 | 265 | 0.0 | 0.0 | 0.00 | 0.00 | 0.00 | 37 | 994.8 |
| 20260508094509 | 26 | 265 | 0.0 | 0.0 | 0.00 | 0.00 | 0.00 | 37 | 994.8 |
| 20260508093010 | 26 | 270 | 0.0 | 0.0 | 0.00 | 0.00 | 0.00 | 39 | 994.6 |
| 20260508091504 | 27 | 226 | 0.0 | 0.0 | 0.00 | 0.00 | 0.00 | 38 | 994.8 |
| 20260508090003 | 27 | 265 | 0.0 | 0.0 | 0.00 | 0.00 | 0.00 | 38 | 994.8 |
| 20260508084500 | 27 | 233 | 0.0 | 0.0 | 0.00 | 0.00 | 0.00 | 37 | 994.9 |
| 20260508083059 | 27 | 270 | 0.0 | 0.0 | 0.00 | 0.00 | 0.00 | 37 | 994.7 |
| 20260508081606 | 27 | 260 | 0.0 | 0.0 | 0.00 | 0.00 | 0.00 | 37 | 994.9 |
| 20260508080059 | 28 | 297 | 0.0 | 0.0 | 0.00 | 0.00 | 0.00 | 35 | 994.9 |
| 20260508074551 | 27 | 346 | 0.0 | 0.0 | 0.00 | 0.00 | 0.00 | 33 | 995.0 |
| 20260508073105 | 27 | 265 | 0.0 | 0.0 | 0.00 | 0.00 | 0.00 | 37 | 994.8 |
| 20260508071548 | 27 | 270 | 0.0 | 0.0 | 0.00 | 0.00 | 0.00 | 37 | 994.8 |
| 20260508070049 | 27 | 265 | 0.0 | 0.0 | 0.00 | 0.00 | 0.00 | 37 | 994.8 |
| 20260508064552 | 27 | 253 | 0.0 | 0.0 | 0.00 | 0.00 | 0.00 | 40 | 994.9 |
| 20260508063053 | 27 | 305 | 0.0 | 0.0 | 0.00 | 0.00 | 0.00 | 38 | 994.9 |
| 20260508061546 | 27 | 265 | 0.0 | 0.0 | 0.00 | 0.00 | 0.00 | 39 | 994.7 |
| 20260508060100 | 27 | 265 | 0.0 | 0.0 | 0.00 | 0.00 | 0.00 | 38 | 994.8 |
| 20260508054542 | 27 | 265 | 0.0 | 0.0 | 0.00 | 0.00 | 0.00 | 40 | 994.9 |
| 20260508053040 | 26 | 265 | 0.0 | 0.0 | 0.00 | 0.00 | 0.00 | 40 | 994.9 |
| 20260508051550 | 26 | 265 | 0.0 | 0.0 | 0.00 | 0.00 | 0.00 | 42 | 994.8 |
| 20260508050034 | 25 | 274 | 0.0 | 0.0 | 0.00 | 0.00 | 0.00 | 44 | 994.7 |
| 20260508044532 | 25 | 287 | 0.0 | 0.0 | 0.00 | 0.00 | 0.00 | 43 | 994.8 |
| 20260508043028 | 24 | 265 | 0.0 | 0.0 | 0.00 | 0.00 | 0.00 | 45 | 994.7 |
| 20260508041525 | 23 | 265 | 0.0 | 0.0 | 0.00 | 0.00 | 0.00 | 48 | 994.5 |
| 20260508040019 | 22 | 265 | 0.0 | 0.0 | 0.00 | 0.00 | 0.00 | 50 | 994.5 |
| 20260508034517 | 20 | 265 | 0.0 | 0.0 | 0.00 | 0.00 | 0.00 | 55 | 994.4 |
| 20260508033011 | 18 | 296 | 0.0 | 0.0 | 0.00 | 0.00 | 0.00 | 59 | 994.3 |
| 20260508031509 | 15 | 305 | 0.0 | 0.0 | 0.00 | 0.00 | 0.00 | 70 | 994.2 |
| 20260508030007 | 13 | 305 | 0.0 | 0.0 | 0.00 | 0.00 | 0.00 | 73 | 994.0 |
| 20260508024516 | 12 | 305 | 0.0 | 0.0 | 0.00 | 0.00 | 0.00 | 76 | 994.1 |
| 20260508023004 | 11 | 305 | 0.0 | 0.0 | 0.00 | 0.00 | 0.00 | 76 | 994.0 |
| 20260508021506 | 11 | 305 | 0.0 | 0.0 | 0.00 | 0.00 | 0.00 | 74 | 994.2 |
| 20260508020126 | 11 | 305 | 0.0 | 0.0 | 0.00 | 0.00 | 0.00 | 72 | 994.2 |
| 20260508014557 | 11 | 279 | 0.0 | 0.0 | 0.00 | 0.00 | 0.00 | 71 | 994.2 |
| 20260508013053 | 12 | 278 | 0.0 | 0.0 | 0.00 | 0.00 | 0.00 | 71 | 994.1 |
| 20260508011556 | 12 | 279 | 0.0 | 0.0 | 0.00 | 0.00 | 0.00 | 69 | 994.3 |
| 20260508010053 | 13 | 279 | 0.0 | 0.0 | 0.00 | 0.00 | 0.00 | 67 | 994.3 |
| 20260508004551 | 13 | 274 | 0.0 | 0.0 | 0.00 | 0.00 | 0.00 | 66 | 994.4 |
| 20260508003040 | 14 | 275 | 0.0 | 0.0 | 0.00 | 0.00 | 0.00 | 65 | 994.3 |
| 20260508001545 | 14 | 276 | 0.0 | 0.0 | 0.00 | 0.00 | 0.00 | 65 | 994.3 |
| 20260508000038 | 14 | 291 | 0.0 | 0.0 | 0.00 | 0.00 | 0.00 | 66 | 994.2 |
| 20260507234536 | 14 | 274 | 0.0 | 0.0 | 0.00 | 0.00 | 0.00 | 65 | 994.0 |
| 20260507233033 | 14 | 270 | 0.0 | 0.0 | 0.00 | 0.00 | 0.00 | 66 | 993.9 |
| 20260507231535 | 15 | 281 | 0.0 | 0.0 | 0.00 | 0.00 | 0.00 | 64 | 993.9 |
| 20260507230031 | 15 | 260 | 0.0 | 0.0 | 0.00 | 0.00 | 0.00 | 64 | 993.9 |
| 20260507224528 | 14 | 265 | 0.0 | 0.0 | 0.00 | 0.00 | 0.00 | 64 | 993.7 |
| 20260507223026 | 14 | 285 | 0.0 | 0.0 | 0.00 | 0.00 | 0.00 | 65 | 993.6 |
| 20260507221527 | 15 | 270 | 0.0 | 0.0 | 0.00 | 0.00 | 0.00 | 63 | 993.7 |
| 20260507220020 | 15 | 280 | 0.0 | 0.0 | 0.00 | 0.00 | 0.00 | 62 | 993.4 |
| 20260507214518 | 16 | 285 | 0.0 | 0.0 | 0.00 | 0.00 | 0.00 | 59 | 993.4 |
| 20260507213026 | 16 | 284 | 0.0 | 0.0 | 0.00 | 0.00 | 0.00 | 59 | 993.4 |
| 20260507211515 | 16 | 265 | 0.0 | 0.0 | 0.00 | 0.00 | 0.00 | 60 | 993.4 |
| 20260507210012 | 16 | 265 | 0.0 | 0.0 | 0.00 | 0.00 | 0.00 | 62 | 993.3 |
| 20260507204511 | 14 | 265 | 0.0 | 0.0 | 0.00 | 0.00 | 0.00 | 66 | 993.2 |
| 20260507203013 | 14 | 265 | 0.0 | 0.0 | 0.00 | 0.00 | 0.00 | 68 | 993.1 |
| 20260507201510 | 14 | 265 | 0.0 | 0.0 | 0.00 | 0.00 | 0.00 | 68 | 992.9 |
| 20260507200010 | 15 | 283 | 0.0 | 0.0 | 0.00 | 0.00 | 0.00 | 64 | 992.7 |
| 20260507194516 | 15 | 283 | 0.0 | 0.0 | 0.00 | 0.00 | 0.00 | 62 | 992.6 |
| 20260507193009 | 16 | 265 | 0.0 | 0.0 | 0.00 | 0.00 | 0.00 | 61 | 992.6 |
| 20260507191511 | 16 | 265 | 0.0 | 0.0 | 0.00 | 0.00 | 0.00 | 60 | 992.5 |
| 20260507190012 | 16 | 265 | 0.0 | 0.0 | 0.00 | 0.00 | 0.00 | 58 | 992.4 |
| 20260507184507 | 17 | 260 | 0.0 | 0.0 | 0.00 | 0.00 | 0.00 | 59 | 992.4 |
| 20260507183011 | 17 | 270 | 0.0 | 0.0 | 0.00 | 0.00 | 0.00 | 57 | 992.4 |
| 20260507181508 | 17 | 270 | 0.0 | 0.0 | 0.00 | 0.00 | 0.00 | 55 | 992.4 |
| 20260507180011 | 18 | 279 | 0.0 | 0.0 | 0.00 | 0.00 | 0.00 | 54 | 992.2 |
| 20260507174507 | 19 | 260 | 0.0 | 0.0 | 0.00 | 0.00 | 0.00 | 52 | 992.0 |
| 20260507173011 | 20 | 260 | 0.0 | 0.0 | 0.00 | 0.00 | 0.00 | 48 | 992.0 |
| 20260507171504 | 21 | 265 | 0.0 | 0.0 | 0.00 | 0.00 | 0.00 | 47 | 991.8 |
| 20260507170004 | 22 | 265 | 0.0 | 0.0 | 0.00 | 0.00 | 0.00 | 45 | 991.9 |
| 20260507164504 | 23 | 260 | 0.0 | 0.0 | 0.00 | 0.00 | 0.00 | 41 | 991.7 |
| 20260507163004 | 24 | 284 | 0.0 | 0.0 | 0.00 | 0.00 | 0.00 | 37 | 991.6 |
| 20260507161503 | 25 | 287 | 0.0 | 0.0 | 0.00 | 0.00 | 0.00 | 36 | 991.7 |
| 20260507160003 | 26 | 287 | 0.0 | 0.0 | 0.00 | 0.00 | 0.00 | 35 | 991.7 |
| 20260507154502 | 26 | 281 | 0.0 | 0.0 | 0.00 | 0.00 | 0.00 | 32 | 991.9 |
| 20260507153001 | 26 | 316 | 0.0 | 0.0 | 0.00 | 0.00 | 0.00 | 32 | 991.9 |
| 20260507151501 | 26 | 260 | 0.0 | 0.0 | 0.00 | 0.00 | 0.00 | 35 | 992.0 |
| 20260507150001 | 27 | 242 | 0.0 | 0.0 | 0.00 | 0.00 | 0.00 | 33 | 992.0 |
| 20260507144619 | 27 | 289 | 0.0 | 0.0 | 0.00 | 0.00 | 0.00 | 31 | 992.0 |
| 20260507143104 | 27 | 280 | 0.0 | 0.0 | 0.00 | 0.00 | 0.00 | 30 | 991.9 |
| 20260507141607 | 27 | 303 | 0.0 | 0.0 | 0.00 | 0.00 | 0.00 | 30 | 992.0 |
| 20260507140106 | 28 | 270 | 0.0 | 0.0 | 0.00 | 0.00 | 0.00 | 31 | 992.1 |
| 20260507134557 | 28 | 270 | 0.0 | 0.0 | 0.00 | 0.00 | 0.00 | 29 | 992.0 |
| 20260507133139 | 28 | 260 | 0.0 | 0.0 | 0.00 | 0.00 | 0.00 | 28 | 992.0 |